Satellite: NOAA-14 Catalog number: 23455 Epoch time: 10139.83343502 Element set: 0061 Inclination: 098.8783 deg RA of node: 220.7721 deg Eccentricity: 0.0008972 Arg of perigee: 321.5290 deg Mean anomaly: 038.5251 deg Mean motion: 14.13785779 rev/day Decay rate: -2.7e-07 rev/day^2 Epoch rev: 79349 Checksum: 314
Satellite: NOAA-15 Catalog number: 25338 Epoch time: 10139.92403770 Element set: 0381 Inclination: 098.6179 deg RA of node: 127.3591 deg Eccentricity: 0.0011115 Arg of perigee: 152.1858 deg Mean anomaly: 207.9935 deg Mean motion: 14.24827020 rev/day Decay rate: 2.12e-06 rev/day^2 Epoch rev: 62472 Checksum: 293
Satellite: RESURS Catalog number: 25394 Epoch time: 10139.61357788 Element set: 0508 Inclination: 098.3060 deg RA of node: 159.2472 deg Eccentricity: 0.0001113 Arg of perigee: 353.0287 deg Mean anomaly: 007.0874 deg Mean motion: 14.24201031 rev/day Decay rate: -9.0e-08 rev/day^2 Epoch rev: 61628 Checksum: 273
Satellite: FENGYUN1 Catalog number: 25730 Epoch time: 10139.45839912 Element set: 0048 Inclination: 098.7857 deg RA of node: 105.1620 deg Eccentricity: 0.0024436 Arg of perigee: 353.2728 deg Mean anomaly: 006.8114 deg Mean motion: 14.08218334 rev/day Decay rate: -3.40e-06 rev/day^2 Epoch rev: 56764 Checksum: 292
Satellite: OKEAN-0 Catalog number: 25860 Epoch time: 10140.50914710 Element set: 997 Inclination: 097.8304 deg RA of node: 114.1518 deg Eccentricity: 0.0001362 Arg of perigee: 105.1199 deg Mean anomaly: 255.0154 deg Mean motion: 14.73639381 rev/day Decay rate: 2.9e-07 rev/day^2 Epoch rev: 58282 Checksum: 283
Satellite: NOAA-16 Catalog number: 26536 Epoch time: 10139.96420622 Element set: 0859 Inclination: 099.1704 deg RA of node: 156.7664 deg Eccentricity: 0.0011325 Arg of perigee: 059.7583 deg Mean anomaly: 300.4712 deg Mean motion: 14.12558567 rev/day Decay rate: 1.45e-06 rev/day^2 Epoch rev: 49784 Checksum: 323
Satellite: NOAA-17 Catalog number: 27453 Epoch time: 10139.96370709 Element set: 0863 Inclination: 098.4325 deg RA of node: 191.5402 deg Eccentricity: 0.0011131 Arg of perigee: 215.5919 deg Mean anomaly: 144.4509 deg Mean motion: 14.24159014 rev/day Decay rate: 1.71e-06 rev/day^2 Epoch rev: 41068 Checksum: 289
Satellite: NOAA-18 Catalog number: 28654 Epoch time: 10139.94312368 Element set: 0347 Inclination: 098.9491 deg RA of node: 086.2914 deg Eccentricity: 0.0014977 Arg of perigee: 130.1202 deg Mean anomaly: 230.1270 deg Mean motion: 14.11355367 rev/day Decay rate: -1.74e-06 rev/day^2 Epoch rev: 25745 Checksum: 302
Satellite: NOAA-19 Catalog number: 33591 Epoch time: 10139.92498113 Element set: 0544 Inclination: 098.7875 deg RA of node: 082.6489 deg Eccentricity: 0.0014603 Arg of perigee: 013.6771 deg Mean anomaly: 346.4797 deg Mean motion: 14.11051636 rev/day Decay rate: -1.45e-06 rev/day^2 Epoch rev: 06592 Checksum: 326
/EX SB KEPS @ AMSAT $ORB10140.M Orbital Elements 10140.MISC
HR AMSAT ORBITAL ELEMENTS FOR MANNED AND MISCELLANEOUS SATELLITES FROM WA5QGD FORT WORTH,TX May 20, 2010 Send Subscribe/unsubscribe to KEPS at http://www.amsat.org/mailman/listinfo/keps BID: ORB10140.M TO ALL RADIO AMATEURS BT
Satellite: HUBBLE Catalog number: 20580 Epoch time: 10140.12080359 Element set: 567 Inclination: 028.4685 deg RA of node: 063.0764 deg Eccentricity: 0.0003378 Arg of perigee: 257.6508 deg Mean anomaly: 102.3718 deg Mean motion: 15.00972641 rev/day Decay rate: 3.44e-06 rev/day^2 Epoch rev: 90053 Checksum: 274
Satellite: ISS Catalog number: 25544 Epoch time: 10140.82248692 Element set: 189 Inclination: 051.6470 deg RA of node: 010.9984 deg Eccentricity: 0.0009832 Arg of perigee: 338.4835 deg Mean anomaly: 114.7562 deg Mean motion: 15.74141501 rev/day Decay rate: 1.3793e-04 rev/day^2 Epoch rev: 65916 Checksum: 307
Satellite: CO-58 Catalog number: 28895 Epoch time: 10139.88055314 Element set: 0589 Inclination: 098.0196 deg RA of node: 025.2895 deg Eccentricity: 0.0018065 Arg of perigee: 018.7937 deg Mean anomaly: 341.3956 deg Mean motion: 14.59890288 rev/day Decay rate: 4.0e-08 rev/day^2 Epoch rev: 24285 Checksum: 356
Satellite: FALCON Catalog number: 30776 Epoch time: 10139.59725111 Element set: 0831 Inclination: 035.4336 deg RA of node: 217.8682 deg Eccentricity: 0.0002060 Arg of perigee: 316.9272 deg Mean anomaly: 043.1284 deg Mean motion: 15.03655992 rev/day Decay rate: 3.65e-06 rev/day^2 Epoch rev: 17575 Checksum: 291
Satellite: MAST Catalog number: 31126 Epoch time: 10139.93020155 Element set: 0870 Inclination: 097.9385 deg RA of node: 183.3992 deg Eccentricity: 0.0093767 Arg of perigee: 314.6178 deg Mean anomaly: 044.7332 deg Mean motion: 14.53584800 rev/day Decay rate: -1.42e-06 rev/day^2 Epoch rev: 16395 Checksum: 307
Satellite: CAPE1 Catalog number: 31130 Epoch time: 10140.78133310 Element set: 890 Inclination: 097.9400 deg RA of node: 181.6694 deg Eccentricity: 0.0101651 Arg of perigee: 320.2128 deg Mean anomaly: 039.1635 deg Mean motion: 14.52177127 rev/day Decay rate: 1.84e-06 rev/day^2 Epoch rev: 16368 Checksum: 264
Satellite: COMPASS Catalog number: 32787 Epoch time: 10140.21412370 Element set: 676 Inclination: 097.8966 deg RA of node: 205.3536 deg Eccentricity: 0.0016203 Arg of perigee: 021.0631 deg Mean anomaly: 339.1257 deg Mean motion: 14.81866344 rev/day Decay rate: 5.75e-06 rev/day^2 Epoch rev: 11135 Checksum: 278
Satellite: AAUSAT2 Catalog number: 32788 Epoch time: 10140.15235597 Element set: 669 Inclination: 097.8939 deg RA of node: 205.4127 deg Eccentricity: 0.0016163 Arg of perigee: 022.0108 deg Mean anomaly: 338.1816 deg Mean motion: 14.82008783 rev/day Decay rate: 6.31e-06 rev/day^2 Epoch rev: 11135 Checksum: 291
Satellite: DO-64 Catalog number: 32789 Epoch time: 10139.69129224 Element set: 685 Inclination: 097.9025 deg RA of node: 205.4005 deg Eccentricity: 0.0016113 Arg of perigee: 021.8780 deg Mean anomaly: 338.3139 deg Mean motion: 14.82138432 rev/day Decay rate: 8.85e-06 rev/day^2 Epoch rev: 11128 Checksum: 303
Satellite: CO-66 Catalog number: 32791 Epoch time: 10140.63719988 Element set: 668 Inclination: 097.8958 deg RA of node: 205.7886 deg Eccentricity: 0.0016723 Arg of perigee: 017.4002 deg Mean anomaly: 342.7762 deg Mean motion: 14.81654700 rev/day Decay rate: 5.31e-06 rev/day^2 Epoch rev: 11137 Checksum: 325
Satellite: RS-30 Catalog number: 32953 Epoch time: 10140.76291027 Element set: 710 Inclination: 082.5032 deg RA of node: 046.7314 deg Eccentricity: 0.0018686 Arg of perigee: 158.0551 deg Mean anomaly: 202.1333 deg Mean motion: 12.43005073 rev/day Decay rate: 1.0e-07 rev/day^2 Epoch rev: 9033 Checksum: 238
Satellite: TACSAT-3 Catalog number: 35001 Epoch time: 10139.93328315 Element set: 0292 Inclination: 040.4574 deg RA of node: 023.7990 deg Eccentricity: 0.0019953 Arg of perigee: 156.6171 deg Mean anomaly: 203.5563 deg Mean motion: 15.41572655 rev/day Decay rate: 3.394e-05 rev/day^2 Epoch rev: 05627 Checksum: 294
Satellite: PHARMSAT Catalog number: 35002 Epoch time: 10140.80348655 Element set: 275 Inclination: 040.4706 deg RA of node: 016.6726 deg Eccentricity: 0.0023162 Arg of perigee: 166.4579 deg Mean anomaly: 193.6863 deg Mean motion: 15.42131848 rev/day Decay rate: 3.309e-05 rev/day^2 Epoch rev: 5642 Checksum: 283
Satellite: HAWKSAT1 Catalog number: 35003 Epoch time: 10139.92535491 Element set: 0294 Inclination: 040.4634 deg RA of node: 017.5484 deg Eccentricity: 0.0021361 Arg of perigee: 174.9099 deg Mean anomaly: 185.1968 deg Mean motion: 15.44990531 rev/day Decay rate: 6.505e-05 rev/day^2 Epoch rev: 05634 Checksum: 302
Satellite: CP6 Catalog number: 35004 Epoch time: 10139.93677658 Element set: 0291 Inclination: 040.4666 deg RA of node: 016.7526 deg Eccentricity: 0.0020304 Arg of perigee: 177.7418 deg Mean anomaly: 182.3515 deg Mean motion: 15.45736858 rev/day Decay rate: 7.831e-05 rev/day^2 Epoch rev: 05634 Checksum: 314
Satellite: AEROCUB3 Catalog number: 35005 Epoch time: 10140.78502488 Element set: 318 Inclination: 040.4732 deg RA of node: 010.3096 deg Eccentricity: 0.0016984 Arg of perigee: 198.0491 deg Mean anomaly: 161.9725 deg Mean motion: 15.49924867 rev/day Decay rate: 2.4469e-04 rev/day^2 Epoch rev: 5649 Checksum: 317
Satellite: DRAGNSAT Catalog number: 35690 Epoch time: 10076.22711312 Element set: 316 Inclination: 051.6170 deg RA of node: 315.4586 deg Eccentricity: 0.0004999 Arg of perigee: 310.9891 deg Mean anomaly: 057.3269 deg Mean motion: 16.42150010 rev/day Decay rate: 5.715194e-02 rev/day^2 Epoch rev: 3656 Checksum: 289
Satellite: POLLUX Catalog number: 35693 Epoch time: 10087.99866888 Element set: 352 Inclination: 051.6099 deg RA of node: 254.5746 deg Eccentricity: 0.0006270 Arg of perigee: 294.4866 deg Mean anomaly: 097.5899 deg Mean motion: 16.52338462 rev/day Decay rate: 2.3496735e-01 rev/day^2 Epoch rev: 3839 Checksum: 384
Satellite: CASTOR Catalog number: 35694 Epoch time: 10140.85895061 Element set: 391 Inclination: 051.6357 deg RA of node: 346.0533 deg Eccentricity: 0.0002752 Arg of perigee: 125.5377 deg Mean anomaly: 234.5892 deg Mean motion: 15.98460136 rev/day Decay rate: 7.0880e-04 rev/day^2 Epoch rev: 4668 Checksum: 315
Satellite: METEOR-M Catalog number: 35865 Epoch time: 10140.68933360 Element set: 312 Inclination: 098.7593 deg RA of node: 194.6802 deg Eccentricity: 0.0003407 Arg of perigee: 077.2976 deg Mean anomaly: 282.8560 deg Mean motion: 14.21830236 rev/day Decay rate: 1.76e-06 rev/day^2 Epoch rev: 3481 Checksum: 301
Satellite: RS-38 Catalog number: 35869 Epoch time: 10140.66377829 Element set: 318 Inclination: 098.7596 deg RA of node: 194.6859 deg Eccentricity: 0.0005575 Arg of perigee: 084.4555 deg Mean anomaly: 275.7243 deg Mean motion: 14.21981806 rev/day Decay rate: 1.77e-06 rev/day^2 Epoch rev: 3481 Checksum: 358
/EX
participants (1)
-
Ray Hoad